Date String (YYYY-MM-DD hh:mm:ss) UTC,Instrument flags,absolute air pressure of the measurement (hPa),sample flow rate (lpm),inlet stack bypass flow (lpm),air temperature of the measurement (°C),ambient temperature measured by the external sensor (°C),aerosol sample conditioner tube jacket temperature (°C),OPC LED temperature (°C),internal box temperature (°C),relative humidity of the measurement (%),span deviation,mass concentration of particles derived from Lorenz-Mie calculation of OPC scattering (μg/m³),mass concentration of particles derived from Lorenz-Mie calculation of OPC scattering (μg/m³),mass concentration of particles derived from Lorenz-Mie calculation of OPC scattering (μg/m³)
DateTimeUTC,F1_M11,P_M11,Q1_M11,Q2_M11,T1_M11,T2_M11,T3_M11,T4_M11,T5_M11,U1_M11,ZSPAN_M11,X0_M11,X2_M11,X1_M11
2024-01-29 18:00:00,SystemResetWarning,0837.6,4.99,000.00,024.8,024.2,000.0,032.9,026.3,14.2,0000.0,0001.81,0000.66,0000.38
2024-01-29 18:01:00,SystemResetWarning,0837.7,4.99,000.00,024.8,024.2,000.0,032.9,026.4,14.8,0000.0,0001.68,0000.64,0000.38
2024-01-29 18:02:00,SystemResetWarning,0837.6,5.00,000.00,024.8,024.2,000.0,032.9,026.4,14.7,0000.0,0001.59,0000.61,0000.37
2024-01-29 18:03:00,SystemResetWarning,0837.6,5.00,000.00,024.9,024.2,000.0,032.9,026.4,14.9,0000.0,0001.54,0000.61,0000.36
2024-01-29 18:04:00,SystemResetWarning,0837.6,5.01,000.00,024.9,024.3,000.0,033.0,026.4,14.8,0000.0,0001.41,0000.60,0000.35
2024-01-29 18:05:00,SystemResetWarning,0837.6,5.00,000.00,024.9,024.3,000.0,033.0,026.5,14.6,0000.0,0001.07,0000.56,0000.35
2024-01-29 18:06:00,SystemResetWarning,0837.6,5.01,000.00,024.9,024.3,000.0,033.0,026.5,14.5,0000.0,0000.97,0000.52,0000.33
2024-01-29 18:07:00,SystemResetWarning,0837.5,5.01,000.00,024.9,024.3,000.0,033.0,026.5,14.5,0000.0,0001.04,0000.51,0000.33
2024-01-29 18:08:00,SystemResetWarning,0837.5,5.00,000.00,025.0,024.4,000.0,033.1,026.5,14.7,0000.0,0001.05,0000.51,0000.33
2024-01-29 18:09:00,SystemResetWarning,0837.5,4.99,000.00,025.0,024.4,000.0,033.1,026.5,14.6,0000.0,0001.09,0000.51,0000.33
2024-01-29 18:10:00,SystemResetWarning,0837.5,5.00,000.00,025.0,024.4,000.0,033.1,026.5,14.4,0000.0,0001.02,0000.52,0000.32
2024-01-29 18:11:00,SystemResetWarning,0837.4,5.00,000.00,025.0,024.4,000.0,033.1,026.6,14.5,0000.0,0000.96,0000.50,0000.32
2024-01-29 18:12:00,SystemResetWarning,0837.4,5.00,000.00,025.0,024.4,000.0,033.1,026.6,14.4,0000.0,0000.97,0000.49,0000.31
2024-01-29 18:13:00,SystemResetWarning,0837.4,5.00,000.00,025.1,024.5,000.0,033.1,026.6,14.3,0000.0,0001.06,0000.52,0000.32
2024-01-29 18:14:00,SystemResetWarning,0837.4,5.00,000.00,025.1,024.5,000.0,033.2,026.6,13.7,0000.0,0001.07,0000.54,0000.32
2024-01-29 18:15:00,SystemResetWarning,0837.4,5.00,000.00,025.1,024.5,000.0,033.2,026.6,13.6,0000.0,0001.19,0000.59,0000.32
2024-01-29 18:16:00,SystemResetWarning,0837.4,5.00,000.00,025.1,024.5,000.0,033.2,026.6,13.6,0000.0,0002.19,0000.66,0000.32
2024-01-29 18:17:00,SystemResetWarning,0837.4,5.00,000.00,025.1,024.5,000.0,033.2,026.7,13.8,0000.0,0002.54,0000.72,0000.34
2024-01-29 18:18:00,SystemResetWarning,0837.4,4.99,000.00,025.1,024.6,000.0,033.2,026.7,14.0,0000.0,0002.56,0000.74,0000.34
2024-01-29 18:19:00,SystemResetWarning,0837.4,4.99,000.00,025.2,024.6,000.0,033.3,026.7,13.8,0000.0,0002.54,0000.77,0000.35
2024-01-29 18:20:00,SystemResetWarning,0837.5,5.00,000.00,025.2,024.6,000.0,033.3,026.7,13.6,0000.0,0002.55,0000.78,0000.36
2024-01-29 18:21:00,SystemResetWarning,0837.4,5.01,000.00,025.2,024.6,000.0,033.3,026.7,13.5,0000.0,0002.49,0000.77,0000.36
2024-01-29 18:22:00,SystemResetWarning,0837.4,5.01,000.00,025.2,024.6,000.0,033.3,026.7,13.8,0000.0,0002.69,0000.78,0000.37
2024-01-29 18:23:00,SystemResetWarning,0837.4,5.01,000.00,025.2,024.6,000.0,033.3,026.7,14.0,0000.0,0002.80,0000.81,0000.37
2024-01-29 18:24:00,SystemResetWarning,0837.4,5.00,000.00,025.3,024.6,000.0,033.3,026.7,14.0,0000.0,0002.74,0000.78,0000.37
2024-01-29 18:25:00,SystemResetWarning,0837.4,5.00,000.00,025.3,024.6,000.0,033.4,026.8,14.2,0000.0,0002.66,0000.75,0000.36
2024-01-29 18:26:00,SystemResetWarning,0837.4,4.99,000.00,025.3,024.7,000.0,033.4,026.8,14.1,0000.0,0002.59,0000.72,0000.36
2024-01-29 18:27:00,SystemResetWarning,0837.3,5.00,000.00,025.3,024.7,000.0,033.4,026.8,13.7,0000.0,0002.04,0000.70,0000.37
2024-01-29 18:28:00,SystemResetWarning,0837.4,4.99,000.00,025.3,024.7,000.0,033.4,026.8,13.8,0000.0,0002.10,0000.73,0000.38
2024-01-29 18:29:00,SystemResetWarning,0837.2,5.00,000.00,025.3,024.7,000.0,033.4,026.8,13.8,0000.0,0002.99,0000.80,0000.39
2024-01-29 18:30:00,SystemResetWarning,0837.3,5.00,000.00,025.3,024.7,000.0,033.5,026.8,13.7,0000.0,0003.18,0000.83,0000.39
2024-01-29 18:31:00,SystemResetWarning,0837.3,5.00,000.00,025.3,024.7,000.0,033.5,026.8,13.6,0000.0,0003.31,0000.86,0000.40
2024-01-29 18:32:00,SystemResetWarning,0837.2,5.01,000.00,025.4,024.7,000.0,033.5,026.8,13.6,0000.0,0004.36,0000.92,0000.40
2024-01-29 18:33:00,SystemResetWarning,0837.2,5.00,000.00,025.4,024.8,000.0,033.5,026.9,13.5,0000.0,0004.69,0000.97,0000.42
2024-01-29 18:34:00,SystemResetWarning,0837.2,5.00,000.00,025.4,024.8,000.0,033.5,026.9,13.5,0000.0,0004.78,0001.03,0000.43
2024-01-29 18:35:00,SystemResetWarning,0837.2,5.00,000.00,025.4,024.8,000.0,033.5,026.9,13.6,0000.0,0005.02,0001.11,0000.45
2024-01-29 18:36:00,SystemResetWarning,0837.2,4.99,000.00,025.4,024.8,000.0,033.6,026.9,13.6,0000.0,0005.24,0001.20,0000.47
2024-01-29 18:37:00,SystemResetWarning,0837.2,4.99,000.00,025.4,023.2,000.0,033.0,026.9,13.5,0000.0,0005.22,0001.20,0000.48
2024-01-29 18:38:00,SystemResetWarning,0837.2,5.00,000.00,025.5,024.8,000.0,033.6,026.9,13.6,0000.0,0005.14,0001.16,0000.49
2024-01-29 18:39:00,SystemResetWarning,0837.2,5.00,000.00,025.5,024.8,000.0,033.6,026.9,13.7,0000.0,0005.01,0001.12,0000.48
2024-01-29 18:40:00,SystemResetWarning,0837.2,4.99,000.00,025.5,024.9,000.0,033.6,027.0,13.5,0000.0,0003.60,0001.03,0000.48
2024-01-29 18:41:00,SystemResetWarning,0837.2,5.00,000.00,025.5,024.9,000.0,033.6,027.0,13.6,0000.0,0004.02,0000.98,0000.47
2024-01-29 18:42:00,SystemResetWarning,0837.2,5.00,000.00,025.5,024.9,000.0,033.7,027.0,13.8,0000.0,0004.41,0000.93,0000.46
2024-01-29 18:43:00,SystemResetWarning,0837.2,5.01,000.00,025.5,024.9,000.0,033.7,027.0,13.9,0000.0,0003.67,0000.87,0000.45
2024-01-29 18:44:00,SystemResetWarning,0837.2,5.01,000.00,025.5,024.9,000.0,033.7,027.0,13.9,0000.0,0003.05,0000.84,0000.45
2024-01-29 18:45:00,SystemResetWarning,0837.2,5.00,000.00,025.6,024.9,000.0,033.7,027.0,13.7,0000.0,0003.08,0000.80,0000.46
2024-01-29 18:46:00,SystemResetWarning,0837.2,5.00,000.00,025.6,024.9,000.0,033.7,027.0,13.8,0000.0,0002.83,0000.72,0000.45
2024-01-29 18:47:00,SystemResetWarning,0837.2,4.99,000.00,025.6,024.9,000.0,033.7,027.0,13.5,0000.0,0002.64,0000.64,0000.44
2024-01-29 18:48:00,SystemResetWarning,0837.2,5.00,000.00,025.6,025.0,000.0,033.7,027.0,13.5,0000.0,0002.62,0000.64,0000.44
2024-01-29 18:49:00,SystemResetWarning,0837.2,5.00,000.00,025.6,025.0,000.0,033.8,027.0,13.7,0000.0,0002.61,0000.65,0000.45
2024-01-29 18:50:00,SystemResetWarning,0837.2,5.00,000.00,025.6,025.0,000.0,033.8,027.1,13.7,0000.0,0003.09,0000.69,0000.47
2024-01-29 18:51:00,SystemResetWarning,0837.1,5.00,000.00,025.6,025.0,000.0,033.8,027.1,13.7,0000.0,0004.56,0000.72,0000.48
2024-01-29 18:52:00,SystemResetWarning,0837.1,4.99,000.00,025.6,025.0,000.0,033.8,027.1,13.3,0000.0,0005.86,0000.79,0000.51
2024-01-29 18:53:00,SystemResetWarning,0837.1,5.00,000.00,025.7,025.0,000.0,033.8,027.1,13.4,0000.0,0004.73,0000.83,0000.54
2024-01-29 18:54:00,SystemResetWarning,0837.1,5.00,000.00,025.7,025.0,000.0,033.8,027.1,13.4,0000.0,0004.79,0000.88,0000.55
2024-01-29 18:55:00,SystemResetWarning,0837.0,5.00,000.00,025.7,025.0,000.0,033.8,027.1,13.5,0000.0,0004.87,0000.92,0000.56
2024-01-29 18:56:00,SystemResetWarning,0837.0,5.01,000.00,025.7,025.1,000.0,033.9,027.2,13.4,0000.0,0004.69,0000.91,0000.56
2024-01-29 18:57:00,SystemResetWarning,0837.0,5.00,000.00,025.7,025.1,000.0,033.9,027.2,13.2,0000.0,0004.57,0000.92,0000.57
2024-01-29 18:58:00,SystemResetWarning,0836.9,5.00,000.00,025.7,025.1,000.0,033.9,027.2,13.3,0000.0,0004.66,0000.96,0000.58
2024-01-29 18:59:00,SystemResetWarning,0836.9,5.00,000.00,025.7,025.1,000.0,033.9,027.2,13.4,0000.0,0005.30,0000.97,0000.59
